TimeMDT,TemperatureF,Dew PointF,Humidity,Sea Level PressureIn,VisibilityMPH,Wind Direction,Wind SpeedMPH,Gust SpeedMPH,PrecipitationIn,Events,Conditions,WindDirDegrees,DateUTC
12:15 AM,78.8,44.6,30,29.99,10.0,SSE,5.8,-,N/A,,Clear,150,2012-07-03 06:15:00
12:35 AM,77.0,44.6,32,30.00,10.0,SE,4.6,-,N/A,,Clear,130,2012-07-03 06:35:00
12:55 AM,77.0,44.6,32,29.99,10.0,SE,4.6,-,N/A,,Clear,130,2012-07-03 06:55:00
1:35 AM,77.0,44.6,32,30.00,10.0,Calm,Calm,-,N/A,,Clear,0,2012-07-03 07:35:00
1:55 AM,75.2,44.6,34,30.00,10.0,East,4.6,-,N/A,,Clear,100,2012-07-03 07:55:00
2:15 AM,73.4,44.6,36,30.00,10.0,East,4.6,-,N/A,,Clear,100,2012-07-03 08:15:00
2:35 AM,75.2,46.4,36,30.00,10.0,ESE,4.6,-,N/A,,Clear,110,2012-07-03 08:35:00
2:55 AM,75.2,46.4,36,30.00,10.0,ESE,4.6,-,N/A,,Scattered Clouds,110,2012-07-03 08:55:00
3:15 AM,75.2,48.2,38,30.00,10.0,ESE,5.8,-,N/A,,Overcast,110,2012-07-03 09:15:00
3:35 AM,75.2,50.0,41,30.00,10.0,East,5.8,-,N/A,,Mostly Cloudy,100,2012-07-03 09:35:00
3:55 AM,73.4,50.0,44,30.00,10.0,SE,4.6,-,N/A,,Mostly Cloudy,130,2012-07-03 09:55:00
4:15 AM,73.4,50.0,44,30.00,10.0,ESE,5.8,-,N/A,,Mostly Cloudy,120,2012-07-03 10:15:00
4:35 AM,73.4,50.0,44,30.01,10.0,ESE,4.6,-,N/A,,Mostly Cloudy,120,2012-07-03 10:35:00
4:55 AM,73.4,50.0,44,30.02,10.0,NE,5.8,-,N/A,,Mostly Cloudy,50,2012-07-03 10:55:00
5:15 AM,73.4,51.8,47,30.02,10.0,East,5.8,-,N/A,,Overcast,80,2012-07-03 11:15:00
5:35 AM,73.4,51.8,47,30.02,10.0,East,4.6,-,N/A,,Mostly Cloudy,80,2012-07-03 11:35:00
5:55 AM,71.6,50.0,46,30.02,10.0,NE,3.5,-,N/A,,Scattered Clouds,50,2012-07-03 11:55:00
6:15 AM,73.4,51.8,47,30.03,10.0,East,5.8,-,N/A,,Clear,80,2012-07-03 12:15:00
6:35 AM,73.4,51.8,47,30.03,10.0,East,5.8,-,N/A,,Mostly Cloudy,100,2012-07-03 12:35:00
6:55 AM,75.2,51.8,44,30.03,10.0,ESE,4.6,-,N/A,,Overcast,110,2012-07-03 12:55:00
7:15 AM,75.2,51.8,44,30.03,10.0,ESE,5.8,-,N/A,,Scattered Clouds,110,2012-07-03 13:15:00
7:35 AM,77.0,51.8,41,30.03,10.0,SE,9.2,-,N/A,,Mostly Cloudy,130,2012-07-03 13:35:00
7:55 AM,77.0,50.0,39,30.04,10.0,ESE,10.4,-,N/A,,Mostly Cloudy,120,2012-07-03 13:55:00
8:15 AM,78.8,50.0,36,30.05,10.0,ESE,10.4,-,N/A,,Scattered Clouds,120,2012-07-03 14:15:00
8:35 AM,78.8,50.0,36,30.05,10.0,SE,10.4,-,N/A,,Clear,140,2012-07-03 14:35:00
8:55 AM,80.6,50.0,34,30.05,10.0,ESE,11.5,-,N/A,,Scattered Clouds,120,2012-07-03 14:55:00
9:15 AM,80.6,50.0,34,30.05,10.0,SE,10.4,-,N/A,,Scattered Clouds,140,2012-07-03 15:15:00
9:35 AM,80.6,51.8,37,30.04,10.0,SSE,11.5,17.3,N/A,,Clear,160,2012-07-03 15:35:00
9:55 AM,82.4,50.0,32,30.04,10.0,SSE,11.5,16.1,N/A,,Clear,150,2012-07-03 15:55:00
10:15 AM,84.2,50.0,30,30.04,10.0,SSE,10.4,16.1,N/A,,Clear,160,2012-07-03 16:15:00
10:35 AM,84.2,51.8,33,30.05,10.0,SSE,10.4,16.1,N/A,,Clear,160,2012-07-03 16:35:00
10:55 AM,86.0,51.8,31,30.04,10.0,SSE,8.1,16.1,N/A,,Clear,150,2012-07-03 16:55:00
11:15 AM,86.0,50.0,29,30.04,10.0,SSE,10.4,-,N/A,,Clear,150,2012-07-03 17:15:00
11:35 AM,87.8,50.0,27,30.04,10.0,South,12.7,19.6,N/A,,Clear,170,2012-07-03 17:35:00
11:55 AM,87.8,50.0,27,30.04,10.0,South,6.9,-,N/A,,Clear,170,2012-07-03 17:55:00
12:15 PM,87.8,48.2,25,30.03,10.0,WSW,6.9,-,N/A,,Clear,240,2012-07-03 18:15:00
12:35 PM,89.6,48.2,24,30.03,10.0,South,8.1,-,N/A,,Clear,170,2012-07-03 18:35:00
12:55 PM,89.6,46.4,22,30.02,10.0,South,10.4,-,N/A,,Scattered Clouds,170,2012-07-03 18:55:00
1:15 PM,89.6,46.4,22,30.01,10.0,SE,4.6,-,N/A,,Scattered Clouds,140,2012-07-03 19:15:00
1:35 PM,91.4,44.6,20,30.00,10.0,SSW,8.1,-,N/A,,Clear,210,2012-07-03 19:35:00
1:55 PM,93.2,44.6,19,30.00,10.0,South,9.2,-,N/A,,Scattered Clouds,190,2012-07-03 19:55:00
2:15 PM,93.2,44.6,19,29.99,10.0,SE,11.5,18.4,N/A,,Scattered Clouds,130,2012-07-03 20:15:00
2:35 PM,91.4,44.6,20,29.98,10.0,SSW,3.5,-,N/A,,Mostly Cloudy,200,2012-07-03 20:35:00
2:55 PM,91.4,44.6,20,29.97,10.0,ESE,3.5,-,N/A,,Mostly Cloudy,120,2012-07-03 20:55:00
3:15 PM,93.2,42.8,17,29.96,10.0,WSW,6.9,-,N/A,,Scattered Clouds,250,2012-07-03 21:15:00
3:35 PM,95.0,42.8,16,29.95,10.0,SSE,3.5,9.2,N/A,,Clear,150,2012-07-03 21:35:00
3:55 PM,95.0,42.8,16,29.94,10.0,SSW,12.7,17.3,N/A,,Scattered Clouds,200,2012-07-03 21:55:00
4:15 PM,91.4,42.8,18,29.93,10.0,South,5.8,9.2,N/A,,Clear,180,2012-07-03 22:15:00
4:35 PM,95.0,42.8,16,29.92,10.0,South,6.9,-,N/A,,Scattered Clouds,190,2012-07-03 22:35:00
4:55 PM,93.2,42.8,17,29.91,10.0,SE,6.9,19.6,N/A,,Scattered Clouds,130,2012-07-03 22:55:00
5:15 PM,93.2,42.8,17,29.91,10.0,South,4.6,-,N/A,,Scattered Clouds,170,2012-07-03 23:15:00
5:35 PM,95.0,42.8,16,29.90,10.0,South,10.4,-,N/A,,Clear,170,2012-07-03 23:35:00
5:55 PM,95.0,41.0,15,29.90,10.0,SW,10.4,16.1,N/A,,Scattered Clouds,220,2012-07-03 23:55:00
6:15 PM,93.2,42.8,17,29.90,10.0,South,10.4,17.3,N/A,,Scattered Clouds,190,2012-07-04 00:15:00
6:35 PM,89.6,44.6,21,29.90,10.0,WSW,17.3,21.9,N/A,,Scattered Clouds,240,2012-07-04 00:35:00
6:55 PM,87.8,44.6,22,29.91,10.0,WSW,16.1,-,N/A,Thunderstorm,Mostly Cloudy,240,2012-07-04 00:55:00
7:15 PM,84.2,50.0,30,29.92,10.0,WSW,19.6,26.5,N/A,,Scattered Clouds,250,2012-07-04 01:15:00
7:35 PM,82.4,50.0,32,29.95,10.0,WSW,5.8,13.8,N/A,,Mostly Cloudy,250,2012-07-04 01:35:00
7:55 PM,73.4,60.8,65,29.96,10.0,NNE,10.4,19.6,N/A,Rain,Rain,20,2012-07-04 01:55:00
8:15 PM,71.6,62.6,73,29.98,10.0,North,8.1,-,0.01,Rain-Thunderstorm,Light Thunderstorms and Rain,10,2012-07-04 02:15:00
8:35 PM,71.6,62.6,73,30.00,10.0,ESE,10.4,-,0.01,Thunderstorm,Overcast,110,2012-07-04 02:35:00
8:55 PM,71.6,62.6,73,30.01,10.0,ESE,10.4,-,0.01,Thunderstorm,Thunderstorm,110,2012-07-04 02:55:00
9:15 PM,69.8,62.6,78,30.01,10.0,East,4.6,-,N/A,Thunderstorm,Overcast,90,2012-07-04 03:15:00
9:35 PM,71.6,62.6,73,30.01,10.0,NE,5.8,-,N/A,Thunderstorm,Mostly Cloudy,50,2012-07-04 03:35:00
9:55 PM,69.8,62.6,78,30.02,10.0,ENE,6.9,-,N/A,,Scattered Clouds,70,2012-07-04 03:55:00
10:15 PM,69.8,64.4,83,30.02,10.0,NE,5.8,-,N/A,,Scattered Clouds,50,2012-07-04 04:15:00
10:35 PM,69.8,62.6,78,30.04,10.0,SE,9.2,-,N/A,,Mostly Cloudy,130,2012-07-04 04:35:00
10:55 PM,69.8,60.8,73,30.04,10.0,SE,9.2,-,N/A,,Mostly Cloudy,140,2012-07-04 04:55:00
11:15 PM,69.8,60.8,73,30.04,10.0,SSE,10.4,-,N/A,,Mostly Cloudy,160,2012-07-04 05:15:00
11:35 PM,69.8,60.8,73,30.04,10.0,SSE,10.4,-,N/A,,Overcast,160,2012-07-04 05:35:00
11:55 PM,69.8,59.0,68,30.03,10.0,South,12.7,-,N/A,,Scattered Clouds,170,2012-07-04 05:55:00